VK3BKO-13 Weather Reports


time (UTC)temp
C
wind
direction
speed
KPH
gust
KPH
rain 1hr
cm
rain 24hr
cm
rain mn
cm
humidity
%
barometer
mb
20260504120204 15 255 11.3 14.5 0.00 0.00 0.03 76 1012.2
20260504110204 15 353 8.0 11.3 0.00 0.00 0.00 74 1011.2
20260504100204 15 15 9.7 14.5 0.00 0.00 0.00 75 1010.5
20260504081704 15 352 12.9 17.7 0.00 0.00 0.00 69 1009.5
20260504080204 15 16 12.9 16.1 0.00 0.00 0.00 68 1009.2
20260504070204 16 1 8.0 11.3 0.00 0.00 0.00 62 1008.5
20260504060203 18 2 9.7 16.1 0.00 0.00 0.00 56 1008.2
20260504050204 19 341 12.9 16.1 0.00 0.00 0.00 52 1008.2
20260504044704 19 330 8.0 12.9 0.00 0.00 0.00 52 1008.2
20260504043203 19 357 11.3 16.1 0.00 0.00 0.00 52 1008.2
20260504041704 19 54 16.1 24.1 0.00 0.00 0.00 52 1008.5
20260504040204 19 335 14.5 17.7 0.00 0.00 0.00 51 1008.2
20260504034704 19 298 12.9 16.1 0.00 0.00 0.00 51 1008.5
20260504033204 19 300 11.3 16.1 0.00 0.00 0.00 51 1008.8
20260504031704 19 41 12.9 16.1 0.00 0.00 0.00 52 1008.8
20260504030204 18 346 16.1 24.1 0.00 0.00 0.00 52 1009.2
20260504024704 19 338 9.7 12.9 0.00 0.00 0.00 53 1009.5
20260504023203 19 354 11.3 17.7 0.00 0.00 0.00 53 1009.2
20260504021704 17 321 17.7 25.7 0.00 0.00 0.00 57 1009.5
20260504020204 19 347 9.7 12.9 0.00 0.00 0.00 56 1009.9
20260504014704 18 0 14.5 19.3 0.00 0.00 0.00 58 1009.9
20260504013204 18 355 19.3 24.1 0.00 0.00 0.00 56 1009.9
20260504011704 18 59 16.1 24.1 0.00 0.00 0.00 58 1009.9
20260504010204 18 336 6.4 12.9 0.00 0.00 0.00 60 1010.2
20260504004704 17 42 4.8 6.4 0.00 0.00 0.00 63 1010.2
20260504003204 18 12 11.3 14.5 0.00 0.00 0.00 61 1010.5
20260504001704 18 336 12.9 17.7 0.00 0.00 0.00 61 1010.5
20260504000204 17 342 8.0 11.3 0.00 0.00 0.00 62 1010.2
20260503234704 17 294 8.0 12.9 0.00 0.00 0.00 62 1010.5
20260503233204 17 354 11.3 14.5 0.00 0.00 0.00 62 1010.5
20260503231703 16 342 8.0 11.3 0.00 0.00 0.00 66 1010.5
20260503230203 16 7 4.8 9.7 0.00 0.00 0.00 67 1010.5
20260503224703 16 17 6.4 14.5 0.00 0.00 0.00 68 1010.5
20260503223203 15 346 3.2 4.8 0.00 0.00 0.00 69 1010.9
20260503221703 15 306 6.4 9.7 0.00 0.00 0.00 69 1010.9
20260503220203 15 1 6.4 9.7 0.00 0.00 0.00 70 1010.9
20260503214703 14 333 9.7 12.9 0.00 0.00 0.00 70 1010.9
20260503213203 14 6 4.8 6.4 0.00 0.00 0.00 71 1010.5
20260503211704 14 337 9.7 12.9 0.00 0.00 0.00 71 1010.5
20260503210204 14 358 3.2 3.2 0.00 0.00 0.00 71 1010.5
20260503204704 13 355 6.4 6.4 0.00 0.00 0.00 73 1010.5
20260503203203 13 319 4.8 6.4 0.00 0.00 0.00 74 1010.2
20260503201704 13 338 1.6 3.2 0.00 0.00 0.00 74 1010.2
20260503200204 13 352 3.2 4.8 0.00 0.00 0.00 73 1010.5
20260503194704 13 346 1.6 3.2 0.00 0.00 0.00 73 1010.2
20260503193204 13 344 4.8 6.4 0.00 0.00 0.00 74 1010.5
20260503191703 13 354 3.2 3.2 0.00 0.00 0.00 74 1010.9
20260503190203 13 343 6.4 9.7 0.00 0.00 0.00 74 1010.9
20260503184704 13 34 6.4 9.7 0.00 0.00 0.00 75 1010.9
20260503183204 13 340 0.0 0.0 0.00 0.00 0.00 76 1010.9
20260503181703 13 353 8.0 11.3 0.00 0.00 0.00 78 1010.9
20260503180203 13 352 4.8 4.8 0.00 0.00 0.00 79 1011.2
20260503174703 13 344 4.8 4.8 0.00 0.00 0.00 79 1011.2
20260503173203 13 359 1.6 3.2 0.00 0.00 0.00 79 1011.5
20260503171704 13 327 4.8 6.4 0.00 0.00 0.00 80 1011.2
20260503170204 13 0 4.8 4.8 0.00 0.00 0.00 79 1011.5
20260503160203 13 334 3.2 3.2 0.00 0.00 0.00 80 1011.5
20260503150204 13 11 3.2 4.8 0.00 0.00 0.00 80 1011.5
20260503140204 14 53 3.2 3.2 0.00 0.00 0.00 79 1011.9
20260503130203 14 329 4.8 4.8 0.00 0.00 1.27 79 1011.9